Regional Weather Roundup
Issued by NWS Wakefield, VA

Home | Current Version | Previous Version | Graphics & Text | Print | Product List | Glossary On
Versions: 1 2 3 4 5 6 7 8 9 10 11 12 13 14 15 16 17 18 19 20 21 22 23 24 25 26 27
000
ASUS41 KAKQ 261115
RWRAKQ

REGIONAL WEATHER ROUNDUP
NATIONAL WEATHER SERVICE WAKEFIELD VA
700 AM EDT TUE JUL 26 2016

Note: "fair" indicates few or no clouds below 12,000 feet with no
significant weather and/or obstructions to visibility. * = Denotes
station may not report precipitation (e.g., rain,snow,etc.),
thunder or fog.

VAZ042-051-052>054-056-261200-
NORTHERN VIRGINIA

CITY           SKY/WX    TMP DP  RH WIND       PRES   REMARKS
WASH NATIONAL  MOCLDY    81  73  76 NW3       29.95R
DULLES         MOCLDY    77  72  84 NW3       29.96R
FORT BELVOIR   FAIR      75  74  96 SE2       29.95R FOG
QUANTICO       NOT AVBL
FREDERICKSBRG* FAIR      79  79 100 CALM      29.94R
STAFFORD*      FAIR      75  73  95 CALM      30.00R FOG
WARRENTON      FAIR      75  70  84 CALM      29.96R
CULPEPER*      FAIR      75  75 100 CALM      29.97R FOG
MANASSAS*      CLEAR     75  75 100 CALM      29.96R
LEESBURG*      FAIR      77  73  88 CALM      29.98R
WINCHESTER     FAIR      73  72  94 CALM      29.99R
FRONT ROYAL*   FAIR      73  72  94 CALM      29.98R
LURAY*         FAIR      73  73 100 CALM      30.00R
$$

VAZ048-049-060>072-079>083-261200-
CENTRAL AND SOUTH CENTRAL VIRGINIA

CITY           SKY/WX    TMP DP  RH WIND       PRES   REMARKS
RICHMOND       MOCLDY    78  74  87 SW5       29.95R
CHESTERFIELD*  FAIR      79  63  57 SW3       29.97R
PETERSBURG*    FAIR      78  78 100 CALM      29.97R
HANOVER        FAIR      78  74  87 CALM      29.97R
TAPPAHANNOCK*  FAIR      79  79 100 SW6       29.95R
QUINTON*       FAIR      78  75  91 CALM      29.95R
CHARLOTTSVILLE FAIR      80  72  76 W3        29.97R
GORDONSVILLE*  FAIR      73  73 100 NE5       29.96S
ORANGE*          N/A     73  73 100 CALM      29.98S
LOUISA*        FAIR      79  75  89 CALM      29.96R
BUMPASS*       FAIR      75  75 100 CALM      29.96R
FARMVILLE*     FAIR     N/A N/A N/A CALM      29.96S FOG
CREWE*         FAIR      78  76  94 CALM      29.97R
FORT PICKETT*  FAIR      77  76  96 SW6       29.98R
CHASE CITY*    FAIR      76  74  94 CALM      29.99S
CLARKSVILLE*   FAIR      73  73 100 SW5       29.99R
SOUTH HILL*    FAIR      76  73  91 S6        30.04S
LAWRENCEVILLE* FAIR      77  74  92 SW3       29.98R
EMPORIA*       FAIR      77  73  88 S3        29.99R
$$

VAZ088>098-261200-
SOUTHEAST VIRGINIA

CITY           SKY/WX    TMP DP  RH WIND       PRES   REMARKS
NORFOLK        FAIR      81  72  74 SW14      29.95R
VIRGINIA BEACH FAIR      84  72  67 W14       29.94R
NORFOLK NAVAL  FAIR      81  73  76 SW10      29.97R
WEST POINT*    FAIR      80  75  86 W7        29.96R
SALUDA*        FAIR      79  77  92 W5        29.93R
NEWPORT NEWS   FAIR      80  76  87 W12       29.95R
LANGLEY AFB    FAIR      80  75  85 SW10      29.94R
FORT EUSTIS    FAIR      80  76  87 W5        29.94R
WILLIAMSBURG*  FAIR      81  75  83 W5        29.96S
HR EXEC AP*    FAIR      79  72  78 W6        29.99R
FRANKLIN*      FAIR      78  73  84 SW5       29.98R
US460-WAKEFLD  FAIR      78  74  87 SW5       29.96R
$$

VAZ020-022-025-037-045-261200-
WEST CENTRAL AND SOUTHWEST VIRGINIA

CITY           SKY/WX    TMP DP  RH WIND       PRES   REMARKS
STAUNTON*      FAIR      71  70  96 CALM      30.04R
WAYNESBORO*    FAIR      75  70  85 CALM      30.03S
HOT SPRINGS VA NOT AVBL
LYNCHBURG      FAIR      72  72 100 CALM      30.02R
DANVILLE       FAIR      75  72  90 SW6       30.00S
SOUTH BOSTON*  FAIR      76  74  95 SW3       29.99R
MARTINSVILLE   FAIR      71  70  96 CALM      30.05S FOG
ROANOKE        FAIR      76  71  85 NW7       30.06R
BLACKSBURG     FAIR      70  70  99 CALM      30.13S FOG
DUBLIN*        FAIR      71  71  99 W3        30.12S
MARION*        FAIR      68  67  95 W7        30.18R
HILLSVILLE*    FOG       67  67 100 CALM      30.13R VSB 1
RICHLANDS*     FAIR      69  69 100 CALM      30.16R
WISE*          FAIR      68  68 100 CALM      30.17R
ABINGDON*      FAIR      70  70  98 CALM      30.14R
$$

MDZ021>025-VAZ099-100-261200-
SOUTHERN MARYLAND AND THE DELMARVA PENINSULA

CITY           SKY/WX    TMP DP  RH WIND       PRES   REMARKS
PATUXENT RIVER MOCLDY    79  75  87 N7        29.93R
BAY BRIDGE APT PTCLDY    79  75  89 NW3       29.94R
LEONARDTOWN    PTCLDY    75  73  94 CALM      29.95R
DOVER          MOSUNNY   77  76  96 NW5       29.92R
GEORGETOWN     MOSUNNY   74  72  93 CALM      29.93R
EASTON         MOCLDY    75  75 100 CALM      29.97R
CAMBRIDGE      PTCLDY    73  73 100 N3        29.92S
SALISBURY      MOSUNNY   76  75  97 NW3       29.92R
OCEAN CITY     PTSUNNY   77  74  90 CALM      29.92R
WALLOPS ISLAND FAIR      80  77  90 MISG      29.92R
ACCOMACK*      FAIR      82  75  78 CALM      29.93R
$$

NCZ012>017-030>032-261200-
NORTH CENTRAL AND EASTERN NORTH CAROLINA

CITY           SKY/WX    TMP DP  RH WIND       PRES   REMARKS
ROANOKE RAPIDS FAIR      75  72  88 SW5       29.99R
RALEIGH        MOCLDY    76  72  87 SW7       30.01S
ELIZABETH CITY CLEAR     78  73  84 SW10      29.98R
AHOSKIE*       CLEAR     75  73  93 CALM      29.99R
EDENTON*       PTCLDY    82  73  74 SW8       29.99S
CURRITUCK*     CLEAR     80  73  81 SW9       29.98R
KILL DEVIL HLS PTCLDY    80  73  78 SW10      29.97S
MANTEO           N/A     80  75  86 W12       29.99S
CAPE HATTERAS  PTCLDY    80  75  84 W10       30.01S
TARBORO*       FAIR      77  73  86 SW3       30.00S
GOLDSBORO      PTCLDY    77  77 100 SW6       30.00S
WASHINGTON     NOT AVBL
GREENVILLE     PTCLDY    77  73  88 SW9       30.02R
NEW BERN       CLEAR     77  73  87 SW7       30.03R
WILMINGTON     PTCLDY    77  73  87 SW7       30.05R
$$

VAZ048-261200-
ELSEWHERE

CITY           SKY/WX    TMP DP  RH WIND       PRES   REMARKS
HARRISBURG PA  FOG       73  73 100 W5        29.95R VSB 1/4
BALTIMORE      MOCLDY    76  70  82 W3        29.94R
ANNAPOLIS      PTCLDY    78  76  93 CALM      29.94R
ANDREWS AFB    FAIR      76  73  92 N2        29.95R
PHILADELPHIA   PTSUNNY   75  70  84 W7        29.94R
GREENSBORO     PTCLDY    77  71  82 SW5       30.03R
ROCKY MOUNT    CLEAR     76  73  91 SW6       30.00R
$$

VAZ100-261200-
MARINE

STATION/POSITION TIME  TEMP    WIND        PRES    WAVE   SWELL
                       AIR SEA DIR/SP/G            HT/PER HT/PER
                 (UTC) (F)     (DEG/KT/KT) (MB)    (FT/S) (FT/S)
BRANDYWINE LGT   1000   78     320/  6/  7   N/A
CAPE MAY NJ      1000   78 72  310/  4/  8 1012.3R
LEWES DE         1000   76 74  320/  9/ 10 1012.6R
OCEAN-CITY-INLET 1000   77 69  330/  4/  4 1012.8R
WACHAPREAGUE VA  1000   81 86  270/  3/  5 1012.9R
THOMAS POINT MD  1100   78 82  320/  4/  5 1015.3R
GOOSES REEF MD   1100   81 84  350/ 10/ 12 1014.6R   1/ 2
COVE POINT MD    1000   79     340/  8/ 10 1013.5R
SOLOMONS ISLAND  1000   79 85  330/  4/  7   N/A
BISHOPS HEAD MD  1000   82 85  320/  5/  7 1012.9R
PINEY POINT MD   1000          300/  8/  9   N/A
POTOMAC MD       1100   83 85  280/ 10/ 12 1012.3R   1/ 2
CAMBRIDGE MD     1000   78 87   CALM  /  2 1012.1R
LEWISETTA VA     1000   82 86  260/  8/ 10 1012.5R
RAPPAHANNOCK LGT 1000          240/ 16/ 17 1013.5R
STINGRAY PT      1100   83 85  210/ 12/ 16 1013.8R   1/ 2
YORK RVR RNG VA  1000   82     250/ 14/ 17 1012.8R
YORKTOWN VA      1000   81 84  230/ 12/ 17 1012.9R
JAMESTOWN VA     1100   80 88  260/  4/  8   N/A     0
DOMINION TERM VA 1000   81     240/ 11/ 14 1014.0R
KIPTOPEKE VA     1000      81  250/ 15/ 18   N/A
CHES BAY BRIDGE  1000   81 80  220/ 16/ 19 1013.4R
CAPE HENRY VA    1000   81     230/ 10/ 17   N/A
WILLOUBY STN VA  1000   81     240/ 16/ 18   N/A
CAPE HENRY BUOY  1012      74                N/A     2/ 5
1ST LANDING BUOY 1100   80 77  230/ 14/ 17 1013.9R
CAPE CHARLES BUO 1026      67                N/A     2/ 3
OFFSHORE WE BUOY 1021      81                N/A     3/ 5
64NM E OF VA BCH 1050   81 81  240/ 17/ 21 1013.9R   5/ 6
DUCK PIER NC     1000   81 61  240/ 16/ 21 1014.1R
44100 DUCK FRF   1005      73                N/A     2/ 4
44056 DUCK FRF   1011      65                N/A     1/ 8
OREGON INLET NC  1000   81 85  230/ 17/ 21 1015.0R
HATTERAS NC      1000   80 83  230/  9/ 13 1015.8R
DIAMOND SHLS NC  1050   83 84  250/ 17/ 21 1016.2R   5/ 5
CAPE LOOKOUT NC  1100   82     250/ 14/ 17 1016.6R
$$




USA.gov is the U.S. government's official web portal to all federal, state and local government web resources and services.